[[{"header":{"parameterUnit":"m.s-1","parameterCategory":1,"la1":30.2991,"la2":30.254,"lo1":-89.0895,"lo2":-89.0444,"dy":0.0017,"dx":0.0017,"nx":28,"ny":28,"refTime":"2023-07-20T21:00:00:Z","depth":0,"parameterNumber":2,"parameterNumberName":"U-component_of_WINDS"},"data":[0,0,0,0,0,0,0,0,0,0,0,0,0,0,0,0,0,0,0,0,0,0,0,0,0,0,0,0,0,0,0,0,0,0,0,0,0,0,0,0,0,0,0,0,0,0,0,0,0,0,0,0,0,0,0,0,0,0,5.6907,5.6909,0,5.7098,5.71,5.7102,5.7044,5.704,5.7036,5.7032,5.7231,5.7239,5.7248,0,0,0,0,0,0,0,0,0,0,0,0,0,5.6491,5.6499,5.6907,5.6909,5.6911,5.7098,5.71,5.7103,5.7045,5.704,5.7035,5.703,5.7228,5.7238,5.7249,0,0,0,0,0,0,0,0,0,0,0,0,0,5.6676,5.6502,5.6906,5.6905,5.6906,5.7097,5.71,5.7104,5.7046,5.704,5.7034,5.7028,5.7224,5.7237,5.7251,5.7455,0,0,5.7292,5.7298,0,0,0,0,0,0,0,0,5.6666,5.6691,5.6903,5.6905,5.6907,5.7041,5.7026,5.7222,5.7047,5.6993,5.7032,5.7025,5.7173,5.719,5.7239,5.7464,5.7473,5.7293,5.7301,5.7307,5.7311,0,0,0,0,0,0,0,5.6653,5.6683,5.6982,5.6906,5.6909,5.6895,5.6914,5.7063,5.7114,5.6997,5.6993,5.7017,5.7173,5.7226,5.7243,5.7476,5.7293,5.7305,5.7313,5.7319,5.7875,5.7881,0,0,0,0,0,0,5.6638,5.6673,5.6976,5.6988,5.6769,5.6907,5.6929,5.7004,5.7113,5.7123,5.7022,5.7013,5.7206,5.7228,5.725,5.7494,5.7307,5.732,5.7328,5.7868,5.7876,5.7883,0,0,0,0,0,0,5.663,5.6666,5.6969,5.6829,5.6867,5.6921,5.7006,5.7011,5.7064,5.7131,5.714,5.7067,5.7202,5.7231,5.7404,5.75,5.7326,5.7338,5.786,5.7871,5.788,5.7985,0,0,0,0,0,0,5.6618,5.6663,5.6741,5.6832,5.6874,5.7119,5.7012,5.7019,5.7088,5.7079,5.7176,5.7186,5.72,5.7384,5.7417,5.7516,5.7349,5.7852,5.7865,5.7877,5.7973,5.7997,5.8018,0,0,0,0,0,5.6603,5.6765,5.6746,5.6783,5.6973,5.7125,5.7149,5.7161,5.7096,5.7175,5.7217,5.7183,5.7484,5.7402,5.7439,5.7543,5.7846,5.7861,5.7876,5.7963,5.7993,5.8017,0,0,0,0,0,0,5.6686,5.6777,5.6757,5.6952,5.7031,5.7114,5.7214,5.7192,5.7292,5.7279,5.729,5.7313,5.7489,5.7534,5.744,5.7745,5.7656,5.7679,5.7709,5.7738,5.776,5.7745,5.736,0,0,0,0,0,5.6727,5.6842,5.6915,5.708,5.7121,5.7161,5.7227,5.7229,5.7312,5.7345,5.74,5.7482,5.7595,5.7669,5.7777,5.7979,5.7998,5.8069,5.8092,5.811,5.8129,5.8237,5.8268,5.7933,5.7932,5.7932,0,0,5.6813,5.6876,5.6949,5.7098,5.716,5.7278,5.719,5.7319,5.7407,5.7365,5.753,5.7574,5.7666,5.7853,5.7939,5.7896,5.8226,5.8129,5.8143,5.8153,5.8255,5.8287,5.8315,5.7943,5.7941,5.7939,0,0,5.7029,5.709,5.7232,5.7295,5.7389,5.7414,5.7448,5.7535,5.7562,5.7727,5.7697,5.7802,5.7997,5.8063,5.8122,5.836,5.8332,5.8396,5.8512,5.8617,5.8643,5.8667,5.875,5.8779,5.8415,5.8415,5.8415,0,5.7124,5.7301,5.7309,5.7441,5.7506,5.7472,5.7616,5.7677,5.7802,5.7848,5.7798,5.8039,5.8099,5.83,5.8358,5.8408,5.8446,5.8384,5.8639,5.8663,5.8685,5.8763,5.8795,5.8422,5.8421,5.8421,5.842,0,5.7412,5.7535,5.7639,5.7758,5.7836,5.7973,5.8001,5.8079,5.8074,5.8104,5.8272,5.8342,5.8462,5.851,5.8508,5.8711,5.8681,5.8635,5.8545,5.8723,5.8797,5.8828,5.8432,5.8429,5.8427,5.8426,0,0,5.7687,5.7806,5.7844,5.7896,5.7996,5.8091,5.8226,5.8342,5.8407,5.8494,5.8606,5.8771,5.8728,5.8795,5.8799,5.8891,5.9072,5.8834,5.8836,5.8873,5.9297,5.9329,5.9364,5.9054,5.906,5.9065,5.9289,0,5.7909,5.8146,5.8156,5.8371,5.8483,5.8452,5.8569,5.8642,5.8674,5.8774,5.8809,5.8924,5.8861,5.89,5.899,5.9031,5.9157,5.9015,5.9158,5.9163,5.9134,5.9404,5.9439,5.9647,5.9318,5.9323,5.9327,0,5.8201,5.8294,5.852,5.8601,5.8648,5.8754,5.8859,5.8955,5.9037,5.9054,5.9127,5.9117,5.9254,5.9161,5.9349,5.9252,5.9311,5.934,5.9348,5.936,5.9254,5.9421,5.9714,5.9744,5.9373,5.9369,5.9366,0,5.8376,5.8558,5.8716,5.8762,5.8861,5.8935,5.898,5.9056,5.9124,5.9216,5.926,5.9368,5.9427,5.951,5.9529,5.9459,5.9717,5.9625,5.9733,5.9732,5.9787,5.9783,6.0091,5.9829,5.9829,5.9828,5.9827,0,5.8623,5.8761,5.8795,5.8892,5.9046,5.9056,5.9208,5.9248,5.9315,5.9419,5.9399,5.9497,5.9516,5.9618,5.9634,5.9786,5.9813,5.9829,5.9832,5.983,5.9828,5.9868,5.9853,5.9836,5.9834,5.9833,5.9831,0,5.8843,5.8872,5.9041,5.912,5.9143,5.9252,5.9319,5.9412,5.944,5.9571,5.9603,5.9648,5.9766,5.9793,5.9935,5.9945,6.0124,6.0114,6.0096,6.0094,6.0199,6.0188,6.0542,6.0588,6.0298,6.0301,6.0303,0,5.8998,5.9103,5.9193,5.926,5.9307,5.9416,5.9485,5.9499,5.9571,5.967,5.9751,5.9866,5.9959,6.0149,6.0195,6.0302,6.0292,6.0409,6.0308,6.0302,6.0291,6.0283,6.0293,6.0427,6.043,6.0433,6.0435,0,5.9268,5.9276,5.9376,5.9479,5.9561,5.9644,5.9723,5.9779,5.9803,5.9885,6.0005,6.0077,6.0219,6.0334,6.0441,6.0487,6.0465,6.0466,6.0496,6.0495,6.0479,6.0486,6.0146,6.0458,6.0456,6.0454,6.0453,6.0452,5.9459,5.955,5.9626,5.9737,5.9797,5.987,5.996,5.9998,6.0098,6.0214,6.0217,6.0346,6.0423,6.0565,6.0617,6.0718,6.0682,6.0726,6.0737,6.0747,6.0755,6.0464,6.0738,6.0737,6.0737,6.0736,6.0736,0,5.9726,5.9773,5.9875,5.9984,6.007,6.0041,6.0126,6.02,6.0314,6.0388,6.0479,6.0615,6.0725,6.0778,6.0887,6.0957,6.095,6.0985,6.0979,6.0989,6.0783,6.0745,6.0989,6.0989,6.0989,6.0989,6.0989,6.0989,5.9876,6.0027,6.0044,6.0224,6.027,6.0396,6.0447,6.0514,6.0572,6.0724,6.0815,6.0848,6.0913,6.1025,6.1125,6.1137,6.1177,6.1217,6.1225,6.103,6.1004,6.098,6.0944,6.1226,6.1227,6.1422,6.1424,6.1426]},{"header":{"parameterUnit":"m.s-1","parameterCategory":1,"la1":30.2991,"la2":30.254,"lo1":-89.0895,"lo2":-89.0444,"dy":0.0017,"dx":0.0017,"nx":28,"ny":28,"refTime":"2023-07-20T21:00:00:Z","depth":0,"parameterNumber":3,"parameterNumberName":"V-component_of_WINDS"},"data":[0,0,0,0,0,0,0,0,0,0,0,0,0,0,0,0,0,0,0,0,0,0,0,0,0,0,0,0,0,0,0,0,0,0,0,0,0,0,0,0,0,0,0,0,0,0,0,0,0,0,0,0,0,0,0,0,0,0,1.3305,1.3306,0,1.3396,1.3397,1.3398,1.3395,1.3393,1.3392,1.3391,1.3485,1.3488,1.3492,0,0,0,0,0,0,0,0,0,0,0,0,0,1.3129,1.3132,1.3305,1.3306,1.3308,1.3396,1.3397,1.3398,1.3395,1.3393,1.3392,1.339,1.3483,1.3488,1.3492,0,0,0,0,0,0,0,0,0,0,0,0,0,1.3211,1.3133,1.3305,1.3316,1.3318,1.3396,1.3397,1.3399,1.3395,1.3393,1.3391,1.339,1.3482,1.3487,1.3493,1.3565,0,0,1.351,1.3512,0,0,0,0,0,0,0,0,1.3206,1.3217,1.3314,1.3316,1.3318,1.3382,1.3369,1.3455,1.3396,1.3366,1.3391,1.3389,1.3452,1.346,1.3481,1.3569,1.3573,1.351,1.3514,1.3516,1.3517,0,0,0,0,0,0,0,1.3201,1.3214,1.3341,1.3315,1.3318,1.3317,1.3326,1.3385,1.3419,1.3369,1.3369,1.3379,1.3453,1.3476,1.3483,1.3575,1.351,1.3515,1.3518,1.352,1.3726,1.3728,0,0,0,0,0,0,1.3192,1.3209,1.3338,1.3344,1.3256,1.3322,1.3332,1.3364,1.3418,1.3425,1.3381,1.3379,1.3467,1.3477,1.3487,1.3574,1.3516,1.3521,1.3524,1.3724,1.3726,1.3728,0,0,0,0,0,0,1.3189,1.3204,1.3335,1.3276,1.3293,1.3327,1.3362,1.3366,1.3389,1.3427,1.3433,1.3398,1.3466,1.3479,1.3545,1.3578,1.3524,1.3529,1.3721,1.3724,1.3727,1.3751,0,0,0,0,0,0,1.3184,1.3203,1.3231,1.3277,1.3296,1.3392,1.3364,1.3369,1.3399,1.3397,1.3445,1.3451,1.3466,1.3537,1.3551,1.3584,1.3533,1.3718,1.3722,1.3726,1.3747,1.3754,1.376,0,0,0,0,0,1.3177,1.3234,1.3232,1.3248,1.3332,1.3394,1.3405,1.342,1.3401,1.343,1.3454,1.345,1.3572,1.3544,1.3559,1.3595,1.3716,1.3721,1.3726,1.3744,1.3753,1.376,0,0,0,0,0,0,1.3191,1.324,1.3239,1.3312,1.3349,1.3393,1.343,1.3429,1.3472,1.3469,1.3486,1.3497,1.3563,1.3585,1.3554,1.3667,1.3642,1.365,1.365,1.3659,1.3665,1.3659,1.3537,0,0,0,0,0,1.3203,1.3249,1.329,1.3351,1.3369,1.3396,1.3424,1.3432,1.3471,1.3486,1.3515,1.3553,1.36,1.363,1.3676,1.375,1.376,1.3782,1.3788,1.3794,1.3801,1.3841,1.3851,1.3744,1.3744,1.3744,0,0,1.3228,1.326,1.3288,1.3354,1.3384,1.3431,1.3409,1.3461,1.3496,1.3494,1.3559,1.3581,1.3624,1.3695,1.3727,1.3716,1.3832,1.38,1.3804,1.3808,1.3847,1.3857,1.3866,1.3747,1.3747,1.3746,0,0,1.3297,1.3326,1.338,1.3409,1.3454,1.3471,1.3484,1.3528,1.3543,1.3607,1.3607,1.3649,1.3729,1.376,1.3786,1.3864,1.3862,1.3878,1.3913,1.3952,1.3961,1.3968,1.3996,1.4006,1.3885,1.3885,1.3885,0,1.3322,1.3394,1.3408,1.3459,1.3488,1.3487,1.3542,1.357,1.3627,1.3646,1.3632,1.3732,1.3761,1.3838,1.3857,1.3878,1.3893,1.3874,1.3958,1.3966,1.3973,1.4,1.4011,1.3887,1.3887,1.3887,1.3886,0,1.3422,1.3472,1.351,1.3564,1.3597,1.3649,1.3671,1.3703,1.3707,1.3726,1.3791,1.3826,1.3878,1.3896,1.3902,1.3974,1.3966,1.3955,1.393,1.3985,1.4011,1.4021,1.3889,1.3889,1.3888,1.3888,0,0,1.3504,1.3565,1.3578,1.3603,1.3651,1.3689,1.3741,1.3791,1.3818,1.3857,1.3901,1.3967,1.3957,1.3987,1.3996,1.403,1.409,1.4015,1.4016,1.4028,1.4171,1.4179,1.4191,1.4088,1.409,1.4091,1.4167,0,1.3579,1.3671,1.3685,1.3766,1.3812,1.3811,1.3857,1.3891,1.3909,1.395,1.397,1.4018,1.4001,1.4018,1.4052,1.4075,1.4119,1.407,1.4129,1.4131,1.4119,1.4204,1.4213,1.4283,1.4177,1.4179,1.418,0,1.3678,1.3719,1.3805,1.3846,1.3866,1.3906,1.3953,1.3992,1.403,1.4041,1.4073,1.4077,1.4131,1.4102,1.4176,1.4142,1.4167,1.4182,1.4185,1.4192,1.4159,1.4214,1.4306,1.4317,1.4196,1.4195,1.4194,0,1.373,1.3806,1.3867,1.3888,1.3937,1.3966,1.3987,1.4024,1.4053,1.4093,1.4112,1.4158,1.4183,1.4218,1.4235,1.4212,1.4307,1.428,1.4318,1.4317,1.4339,1.4337,1.4437,1.4353,1.4353,1.4353,1.4353,0,1.3812,1.3865,1.3891,1.3929,1.3987,1.4002,1.4059,1.408,1.4112,1.4154,1.4156,1.4194,1.4213,1.4255,1.4268,1.4326,1.4338,1.4348,1.4351,1.4348,1.4347,1.4365,1.4361,1.4356,1.4355,1.4355,1.4354,0,1.388,1.39,1.3966,1.4007,1.4018,1.406,1.4094,1.4131,1.4148,1.42,1.4213,1.4241,1.4289,1.4309,1.4369,1.4377,1.4445,1.4444,1.4432,1.4433,1.4469,1.4466,1.4585,1.4601,1.4506,1.4507,1.4508,0,1.3931,1.3972,1.4016,1.4044,1.4066,1.4111,1.414,1.4155,1.4186,1.4231,1.4262,1.4311,1.435,1.4428,1.4453,1.4499,1.4499,1.4537,1.4506,1.4501,1.45,1.4497,1.4501,1.4544,1.4544,1.4545,1.4546,0,1.402,1.4028,1.407,1.4115,1.4149,1.4186,1.4221,1.4244,1.4264,1.4298,1.4347,1.4378,1.4438,1.4486,1.4533,1.4555,1.4554,1.4555,1.4566,1.4564,1.4556,1.4561,1.4448,1.4553,1.4552,1.4552,1.4551,1.4551,1.4082,1.4117,1.4154,1.42,1.4228,1.4261,1.4297,1.4318,1.436,1.441,1.4416,1.4469,1.4505,1.4567,1.4591,1.4633,1.4623,1.4639,1.4643,1.4647,1.4649,1.4549,1.4641,1.4641,1.4641,1.4641,1.4641,0,1.4171,1.4194,1.4237,1.4286,1.4322,1.4317,1.4355,1.4386,1.4432,1.4466,1.4505,1.4561,1.4607,1.4635,1.4682,1.4709,1.471,1.4721,1.4719,1.4724,1.4656,1.4641,1.472,1.472,1.472,1.472,1.472,1.472,1.4222,1.4281,1.4293,1.4366,1.4389,1.4441,1.4463,1.4493,1.452,1.4583,1.4621,1.4639,1.467,1.4718,1.476,1.4767,1.4784,1.4796,1.4802,1.4738,1.4729,1.4722,1.4708,1.4799,1.48,1.4868,1.4868,1.4869]}]]